Location: Ariel
(45.9570°N, 122.5700°W)
Time: 23:35:47
(UTC-07:00)

Tiros 1 - Pass Details

Date: 27 July 2019
Orbit: 631 x 664 km, 48.4° (Epoch: 23 August)

Event Time Altitude Azimuth Distance (km) Brightness Sun altitude
Rises 16:19:17 0° 289° (WNW) 2,999 11.1 44.0°
Reaches altitude 10° 16:21:41 10° 285° (WNW) 2,084 10.6 43.6°
Maximum altitude 16:26:20 51° 210° (SSW) 836 9.0 42.8°
Drops below altitude 10° 16:30:58 10° 135° (SE) 2,070 9.6 42.1°
Sets 16:33:21 0° 130° (SE) 2,975 10.3 41.7°
